Wind_Speed
41 40 42 45 47 48 49 49 53 56 60 62 61 60 62 63 66 67 69 72 75 78 82 87 87 81 79 76 77 77 75 68 61 50 41 41 40 41 42 43 43 43 42
45 45 48 50 46 50 51 54 56 60 60 59 62 64 64 65 67 72 75 76 79 82 86 81 79 78 76 75 70 69 66 59 52 45 39 39 40 41 40 41 42 42 41
41 47 50 47 57 53 57 53 56 58 60 60 63 63 62 66 73 78 84 89 87 84 80 78 79 78 75 71 66 63 57 52 45 41 38 40 39 39 38 39 39 38 37
44 42 43 56 52 57 55 54 58 61 63 62 63 64 68 71 74 79 87 88 84 78 78 79 81 79 68 61 60 56 49 43 39 38 37 38 40 40 40 38 33 36 35
45 49 55 48 56 55 57 59 60 61 61 62 66 70 75 77 80 82 84 83 76 76 83 81 72 65 60 58 54 48 44 39 36 35 34 36 36 36 36 33 32 30 31
45 53 51 50 56 57 59 59 58 60 62 65 74 76 76 80 83 83 79 75 80 83 76 68 59 57 55 54 47 41 39 36 34 33 32 33 33 34 32 30 30 27 28
50 49 51 54 57 58 58 58 59 64 67 67 73 80 83 86 82 79 78 81 77 69 61 57 57 55 53 49 41 37 35 34 33 31 31 34 33 34 30 29 28 27 30
49 53 54 55 56 58 59 63 67 71 70 73 76 80 84 81 79 79 77 69 62 60 57 55 54 52 46 42 37 34 32 31 31 32 33 34 33 31 29 28 26 27 30
52 52 54 56 57 60 62 64 70 73 75 79 80 79 77 78 79 71 68 66 62 56 54 52 51 47 42 38 34 31 29 29 29 30 32 33 32 30 27 26 25 25 29
51 52 54 57 62 64 65 68 71 72 76 78 77 76 78 66 69 65 67 66 58 53 50 48 46 40 38 35 31 29 27 27 27 30 31 32 32 31 28 26 24 25 28
52 54 57 59 65 66 66 68 71 74 77 77 75 68 65 65 66 66 68 62 53 49 47 45 41 37 35 31 29 27 26 25 26 27 29 30 30 30 28 26 25 23 27
55 59 62 62 63 66 68 70 72 74 75 71 67 63 63 68 67 69 68 59 51 46 44 42 37 34 32 29 28 26 26 24 25 25 27 29 30 30 30 26 24 24 24
60 61 61 62 65 68 70 72 74 74 73 68 64 62 65 68 70 71 64 54 49 45 42 39 35 32 30 28 27 25 25 24 24 25 26 28 29 29 30 27 24 22 23
61 62 63 65 68 71 73 74 73 70 68 67 65 66 69 70 71 68 58 50 46 43 41 36 33 31 28 26 26 25 25 24 24 24 25 27 28 28 29 27 24 22 22
62 63 66 69 71 73 74 73 70 67 68 67 69 71 73 72 69 63 54 49 45 41 39 35 32 30 28 25 24 25 24 25 24 24 25 26 26 26 27 28 24 22 19
64 67 70 72 74 75 74 71 68 67 68 71 74 76 76 73 65 58 51 48 43 40 36 34 34 30 29 27 26 25 23 24 25 25 25 25 24 24 25 26 26 20 18
68 71 73 74 74 74 72 71 70 66 69 72 76 78 77 70 62 55 50 46 41 39 34 34 33 31 30 29 28 26 25 25 24 25 25 24 24 22 23 23 24 23 17
72 75 77 78 80 79 77 74 73 73 74 75 77 77 69 64 59 52 47 44 39 37 33 32 32 31 28 27 27 25 25 26 25 24 24 23 23 22 22 21 21 22 19
76 77 79 80 79 76 74 74 75 77 80 80 77 70 62 57 53 48 44 41 37 34 33 31 31 30 29 25 25 25 25 25 24 24 24 23 22 21 21 20 20 20 20
78 80 81 80 78 76 77 79 80 82 80 76 68 61 55 52 47 43 42 38 35 33 32 31 30 29 27 25 25 25 24 22 22 23 23 22 21 20 20 19 19 19 18
82 81 81 78 77 79 82 84 83 79 70 65 58 54 52 49 42 40 37 36 34 33 32 31 30 28 26 26 25 25 23 22 23 23 22 20 19 19 18 18 18 17 17
83 81 78 79 81 83 83 81 77 69 62 58 53 50 48 44 38 37 36 35 34 33 32 31 30 28 27 27 26 25 23 23 22 21 20 19 19 19 19 18 18 17 16
78 77 80 83 81 79 77 70 61 55 52 49 47 45 44 38 35 35 35 34 33 32 31 32 30 28 28 28 27 25 23 23 23 22 21 20 20 20 20 19 18 18 16
77 82 79 78 75 68 56 52 50 48 46 46 46 45 45 40 36 33 33 33 32 31 30 31 30 29 28 27 26 25 26 25 24 24 24 23 22 22 21 21 21 20 18
80 77 76 73 61 53 52 53 52 49 45 42 42 43 42 41 39 36 34 32 31 30 30 30 28 29 29 26 24 26 26 26 25 25 26 25 25 25 25 24 22 22 20
77 73 70 61 53 53 53 52 52 52 49 46 44 43 40 38 38 36 34 32 31 30 29 29 28 28 29 27 24 23 23 23 24 24 24 25 26 27 27 27 25 23 23
Wind_Direction
297 292 287 300 302 301 298 298 296 299 301 302 303 302 301 301 300 302 303 304 303 304 307 309 306 304 305 311 318 317 314 308 304 302 300 295 293 291 291 291 290 287 283
296 297 303 302 295 296 298 296 297 302 302 302 303 304 303 303 303 303 303 303 303 305 308 305 302 303 309 319 317 311 305 303 301 303 299 299 299 297 296 294 291 289 286
296 299 295 293 302 300 300 300 300 299 301 302 301 301 300 302 304 307 307 302 301 304 303 301 300 308 318 319 311 304 302 301 301 304 303 302 302 300 300 298 295 290 286
292 291 284 296 295 297 302 299 300 301 302 302 302 302 302 303 303 304 302 303 307 304 299 301 308 316 319 309 303 302 299 299 301 302 305 306 307 304 304 302 296 292 288
286 286 291 289 299 302 301 301 301 302 303 303 303 303 303 303 303 302 305 308 302 298 300 309 318 316 308 304 303 301 299 298 300 303 305 305 307 305 306 300 298 294 289
282 293 292 293 300 299 301 303 303 303 303 301 301 303 304 304 305 307 306 301 299 304 315 319 311 307 304 301 300 299 298 298 298 303 307 310 312 310 308 304 302 297 296
293 294 297 298 300 301 302 302 303 302 303 299 300 299 300 305 308 306 301 301 312 319 316 311 307 306 304 301 301 298 296 299 302 309 315 318 317 314 310 307 303 300 302
296 296 298 300 301 302 304 304 306 307 304 301 300 300 302 308 305 301 311 319 317 313 311 306 305 304 302 300 299 294 296 301 307 313 318 321 318 316 311 310 304 304 308
299 299 301 303 302 303 306 300 299 299 296 298 302 303 305 302 306 314 316 319 316 309 306 306 305 305 303 300 297 292 295 300 306 313 318 321 322 320 314 311 306 308 315
300 301 301 303 305 305 304 301 301 301 302 304 306 304 307 310 313 318 321 320 313 309 307 305 305 305 301 301 296 291 292 298 306 311 316 324 326 324 320 316 311 310 318
304 304 304 302 303 304 304 305 305 304 306 305 307 310 311 315 318 319 321 317 310 308 306 306 306 303 301 301 296 291 292 296 301 307 316 323 327 329 321 315 315 311 319
303 304 304 303 304 304 306 307 307 306 307 308 309 311 315 318 318 318 318 314 309 306 304 304 305 301 300 299 297 293 290 293 297 305 315 322 329 331 329 320 318 312 318
304 303 304 305 305 307 309 309 309 308 308 309 311 313 316 317 316 316 314 312 308 304 302 302 301 297 298 297 295 291 290 295 298 305 313 320 326 331 333 322 318 312 317
304 306 307 307 309 311 311 309 309 309 309 310 311 312 314 314 314 313 312 311 308 302 299 299 295 294 296 294 292 291 289 292 297 301 308 314 321 329 332 334 322 318 315
307 307 307 309 310 310 310 310 311 310 310 310 310 310 312 313 312 311 308 306 306 300 297 296 289 286 290 293 294 292 291 290 293 297 302 307 316 323 330 336 330 321 314
307 308 309 310 310 310 310 309 309 309 309 310 311 311 312 311 309 305 303 302 303 301 294 291 287 279 279 286 290 295 295 291 289 292 297 302 308 316 324 331 337 325 316
307 308 310 310 310 309 308 308 308 307 307 309 309 309 309 307 304 301 300 299 300 300 291 288 286 277 271 278 284 287 290 291 290 288 292 297 302 309 316 325 332 336 322
308 309 310 310 310 309 308 307 307 307 307 308 307 307 306 303 302 300 297 295 295 296 289 286 284 278 268 273 281 285 287 287 289 289 289 291 295 299 306 316 327 332 332
310 310 310 309 308 308 306 306 305 305 306 306 306 304 301 299 301 298 295 292 290 291 286 285 284 278 267 269 276 284 286 286 287 287 287 288 289 291 297 303 318 324 333
309 309 309 308 308 306 305 305 305 305 305 304 304 302 298 297 297 295 293 290 286 285 284 283 282 276 262 266 275 281 286 284 286 289 289 288 287 289 290 296 306 317 323
310 309 308 308 308 307 306 306 305 304 304 302 301 300 298 295 292 289 288 287 281 279 279 279 278 272 260 262 270 277 282 284 287 289 288 287 288 288 287 291 294 304 316
310 310 310 309 309 309 308 307 306 304 301 298 298 297 296 297 293 289 287 285 279 276 274 274 273 264 256 260 265 268 276 279 282 286 286 286 288 289 286 283 286 293 301
311 311 312 312 312 312 311 310 310 307 302 298 297 295 294 293 290 287 285 281 277 274 271 269 267 258 252 255 261 263 268 273 275 279 282 285 286 285 284 282 279 286 288
313 313 314 314 314 315 317 319 320 315 309 302 297 294 294 294 291 288 284 281 277 273 269 264 260 257 253 252 254 261 268 268 271 274 277 279 281 282 283 282 279 277 279
315 315 316 316 315 314 315 316 314 311 307 303 298 294 291 289 287 285 283 280 276 271 264 258 255 251 253 253 257 261 264 266 267 269 272 276 277 277 278 277 275 274 274
317 317 316 315 314 314 315 315 314 309 302 294 288 285 284 282 278 277 277 276 273 271 264 254 254 249 250 253 257 257 257 260 265 268 272 275 276 276 275 274 271 268 269
Height
5730 5724 5719 5714 5708 5702 5697 5693 5686 5683 5675 5666 5658 5650 5643 5635 5626 5616 5608 5600 5590 5579 5568 5558 5548 5538 5526 5513 5502 5490 5477 5465 5456 5451 5442 5437 5432 5427 5422 5417 5412 5408 5405
5718 5713 5707 5703 5699 5694 5687 5682 5678 5669 5661 5653 5645 5637 5629 5620 5612 5602 5592 5582 5571 5560 5549 5539 5530 5521 5509 5496 5483 5470 5459 5448 5441 5437 5431 5425 5419 5414 5409 5405 5400 5396 5392
5709 5703 5698 5693 5689 5682 5678 5671 5664 5655 5646 5639 5631 5622 5614 5605 5595 5584 5574 5564 5555 5543 5533 5524 5515 5504 5493 5480 5467 5454 5445 5436 5428 5423 5419 5413 5408 5402 5399 5393 5388 5384 5379
5698 5694 5689 5683 5676 5671 5663 5656 5650 5641 5633 5625 5617 5608 5599 5589 5578 5567 5557 5546 5536 5527 5516 5507 5496 5485 5473 5462 5451 5441 5433 5425 5419 5414 5408 5402 5396 5391 5386 5382 5378 5372 5368
5688 5683 5677 5670 5663 5657 5650 5643 5636 5627 5619 5611 5601 5591 5581 5571 5560 5550 5539 5528 5519 5510 5501 5490 5478 5467 5456 5446 5437 5430 5423 5417 5411 5406 5400 5395 5389 5382 5377 5372 5367 5364 5358
5678 5671 5664 5658 5652 5645 5637 5629 5621 5613 5605 5595 5584 5574 5564 5554 5543 5533 5522 5512 5501 5490 5480 5470 5460 5451 5440 5430 5423 5417 5412 5407 5403 5397 5392 5386 5380 5373 5368 5363 5358 5355 5352
5665 5659 5653 5646 5638 5630 5622 5615 5607 5599 5589 5579 5569 5559 5548 5536 5524 5515 5505 5495 5483 5473 5464 5455 5446 5438 5429 5421 5413 5407 5403 5398 5393 5387 5383 5377 5371 5364 5360 5355 5350 5346 5342
5653 5646 5640 5633 5625 5617 5609 5601 5592 5582 5573 5564 5554 5542 5532 5519 5509 5498 5487 5477 5467 5458 5449 5441 5433 5425 5416 5409 5403 5399 5394 5390 5384 5379 5374 5369 5363 5357 5351 5347 5343 5339 5334
5639 5633 5626 5619 5611 5603 5595 5587 5578 5568 5557 5547 5536 5525 5515 5505 5492 5482 5474 5464 5454 5444 5436 5428 5421 5413 5406 5401 5395 5391 5387 5382 5377 5372 5367 5362 5356 5349 5344 5341 5336 5332 5327
5627 5620 5613 5605 5597 5588 5579 5571 5561 5551 5540 5528 5517 5507 5497 5487 5477 5467 5457 5448 5440 5432 5424 5416 5409 5402 5396 5392 5387 5383 5380 5375 5370 5366 5361 5355 5349 5342 5337 5333 5330 5326 5321
5612 5605 5598 5591 5582 5573 5563 5553 5544 5533 5522 5512 5502 5490 5480 5471 5463 5453 5443 5434 5425 5419 5411 5405 5399 5393 5388 5383 5379 5375 5372 5369 5364 5361 5357 5351 5345 5338 5332 5327 5323 5320 5315
5599 5592 5584 5575 5566 5557 5547 5536 5526 5516 5505 5494 5485 5478 5467 5457 5448 5439 5430 5420 5413 5407 5400 5394 5388 5384 5379 5375 5371 5368 5365 5362 5359 5355 5351 5346 5341 5334 5327 5321 5318 5314 5311
5585 5577 5569 5560 5550 5540 5530 5520 5509 5497 5488 5479 5470 5463 5454 5443 5434 5424 5416 5408 5400 5395 5389 5383 5378 5374 5371 5368 5364 5361 5358 5355 5351 5348 5345 5341 5336 5330 5324 5317 5313 5309 5305
5569 5561 5552 5543 5532 5522 5512 5502 5492 5481 5471 5463 5454 5447 5439 5430 5419 5410 5402 5395 5389 5383 5378 5374 5369 5365 5363 5360 5356 5354 5351 5348 5345 5342 5339 5336 5331 5326 5320 5314 5308 5304 5301
5552 5545 5535 5526 5515 5505 5494 5483 5473 5463 5453 5446 5438 5430 5421 5414 5404 5394 5388 5383 5378 5372 5367 5363 5359 5356 5354 5351 5349 5346 5343 5340 5338 5335 5333 5330 5326 5322 5317 5311 5305 5301 5297
5537 5527 5518 5509 5498 5487 5476 5468 5458 5447 5437 5427 5418 5409 5403 5393 5386 5381 5376 5370 5365 5360 5357 5353 5349 5347 5346 5344 5341 5338 5336 5333 5331 5329 5327 5324 5321 5318 5313 5308 5303 5298 5294
5521 5510 5500 5490 5479 5468 5458 5447 5439 5437 5424 5414 5403 5393 5381 5376 5370 5365 5360 5355 5352 5348 5346 5342 5339 5337 5337 5335 5333 5331 5328 5326 5324 5322 5320 5318 5315 5313 5309 5305 5300 5296 5292
5504 5493 5483 5473 5462 5451 5439 5430 5420 5411 5405 5400 5389 5377 5367 5357 5352 5348 5344 5341 5339 5335 5333 5331 5329 5327 5326 5326 5324 5323 5320 5318 5316 5314 5313 5311 5309 5307 5305 5301 5298 5294 5289
5484 5473 5462 5451 5440 5429 5419 5410 5401 5392 5384 5375 5367 5359 5349 5341 5337 5333 5329 5327 5325 5324 5321 5320 5318 5316 5316 5316 5316 5314 5312 5310 5309 5307 5306 5305 5303 5301 5299 5297 5294 5291 5287
5466 5454 5442 5431 5421 5410 5400 5389 5380 5371 5361 5352 5345 5339 5332 5326 5323 5319 5315 5313 5312 5311 5309 5308 5307 5306 5306 5307 5307 5306 5304 5303 5302 5300 5299 5298 5297 5295 5294 5292 5290 5288 5285
5446 5435 5423 5412 5400 5388 5377 5366 5356 5346 5338 5331 5326 5320 5314 5311 5309 5305 5303 5301 5299 5299 5298 5297 5296 5296 5297 5297 5298 5298 5297 5295 5294 5293 5292 5291 5290 5289 5288 5287 5286 5284 5282
5425 5413 5401 5390 5379 5367 5353 5341 5331 5323 5316 5309 5307 5302 5298 5295 5293 5290 5289 5288 5287 5286 5286 5286 5286 5286 5287 5288 5289 5290 5289 5288 5287 5286 5285 5284 5284 5283 5282 5282 5281 5280 5278
5404 5392 5380 5367 5354 5343 5331 5320 5310 5303 5297 5292 5289 5286 5283 5282 5280 5278 5276 5275 5274 5274 5274 5275 5275 5276 5278 5279 5280 5280 5281 5280 5280 5279 5279 5278 5277 5277 5276 5276 5275 5274 5273
5384 5371 5359 5347 5335 5324 5313 5305 5297 5289 5283 5279 5275 5272 5269 5267 5267 5266 5264 5263 5262 5263 5263 5263 5264 5265 5267 5269 5270 5271 5272 5272 5272 5272 5271 5271 5271 5270 5269 5269 5269 5268 5268
5364 5351 5339 5329 5318 5310 5302 5293 5285 5279 5272 5267 5262 5258 5256 5254 5253 5253 5252 5251 5251 5251 5252 5253 5254 5256 5257 5259 5261 5262 5262 5263 5263 5263 5263 5263 5263 5262 5262 5262 5262 5262 5261
5345 5333 5321 5312 5304 5297 5289 5281 5272 5265 5258 5252 5249 5246 5244 5242 5241 5240 5240 5240 5240 5240 5241 5242 5244 5246 5248 5250 5251 5252 5253 5254 5254 5254 5255 5255 5254 5254 5254 5254 5254 5254 5254